Terminal Aerodrome Forecast
Issued by NWS

Home | Current Version | Previous Version | Graphics & Text | Print | Product List | Glossary On
Versions: 1 2 3 4 5 6 7 8 9 10 11 12 13 14 15 16 17 18 19 20 21 22 23 24 25 26 27 28 29 30 31 32 33 34 35 36 37 38 39 40 41 42 43 44 45 46 47 48 49 50
000
FTUS43 KLOT 121700
TAFGYY
TAF
KGYY 121740Z 1218/1318 20012KT P6SM BKN010 OVC025
     FM121900 21012G20KT P6SM BKN025 BKN120
     FM122200 21012G20KT P6SM SCT025 BKN120
     FM130200 22010G16KT P6SM VCTS BKN040CB
     FM130400 26010KT 3SM TSRA SCT015 OVC035CB
     FM130800 30007KT P6SM SCT020 OVC040=

USA.gov is the U.S. government's official web portal to all federal, state and local government web resources and services.